Notices

What's New in latest Release from April 7th, 2021:

- Updated Glossary, including Speed of Maximum Gust, and Total Hourly Precipitation

- Updated national and regional climate services offices contacts and prices information

- Addition of station inventory lists for 1981-2010, 1971-2000, and 1961-1990 Normals.

If you haven't already, please take our survey and provide feedback about our website: https://eccc.sondage-survey.ca/f/LanguageSelection.aspx?s=442ca660-fcf1-47c0-95a9-59707d6fd709

Hourly Data Report for April 27, 2004

TORONTO CITY
ONTARIO

43°40'00.000" N
79°24'00.000" W
112.50 m
6158355
71508
XTO

Download Data

Hourly Data (April 2004)
Hourly Data Report for April 27, 2004
TIME
LST
Temp Definition
°C
Dew Point Definition
°C
Rel Hum Definition
%
Precip. Amount Definition
mm

Wind Dir Definition
10's deg

Wind Spd Definition
km/h
Visibility Definition
km
Stn Press Definition
kPa
Hmdx Definition


Wind Chill Definition


Weather Definition


00:00 7.9 5.8 87   LegendMM LegendMM LegendMM 99.38     LegendNANA
01:00 8.5 5.3 80   LegendMM LegendMM LegendMM 99.30     LegendNANA
02:00 7.5 4.3 80   LegendMM LegendMM LegendMM 99.30     LegendNANA
03:00 6.9 3.7 80   LegendMM LegendMM LegendMM 99.30     LegendNANA
04:00 6.2 3.4 82   LegendMM LegendMM LegendMM 99.30     LegendNANA
05:00 5.5 2.7 82   LegendMM LegendMM LegendMM 99.30     LegendNANA
06:00 5.1 2.2 82   LegendMM LegendMM LegendMM 99.30     LegendNANA
07:00 5.5 1.2 74   LegendMM LegendMM LegendMM 99.33     LegendNANA
08:00 5.9 1.0 71   LegendMM LegendMM LegendMM 99.36     LegendNANA
09:00 6.2 0.8 68   LegendMM LegendMM LegendMM 99.40     LegendNANA
10:00 5.8 1.8 75   LegendMM LegendMM LegendMM 99.45     LegendNANA
11:00 5.4 0.6 71   LegendMM LegendMM LegendMM 99.49     LegendNANA
12:00 6.7 -0.4 60   LegendMM LegendMM LegendMM 99.50     LegendNANA
13:00 6.3 -0.1 64   LegendMM LegendMM LegendMM 99.55     LegendNANA
14:00 5.7 -0.8 63   LegendMM LegendMM LegendMM 99.62     LegendNANA
15:00 6.8 -1.8 54   LegendMM LegendMM LegendMM 99.61     LegendNANA
16:00 6.6 -3.3 49   LegendMM LegendMM LegendMM 99.67     LegendNANA
17:00 4.1 -3.3 59   LegendMM LegendMM LegendMM 99.78     LegendNANA
18:00 3.1 -4.3 58   LegendMM LegendMM LegendMM 99.85     LegendNANA
19:00 2.4 -5.9 54   LegendMM LegendMM LegendMM 99.93     LegendNANA
20:00 1.7 -6.2 56   LegendMM LegendMM LegendMM 100.02     LegendNANA
21:00 1.9 -6.1 55   LegendMM LegendMM LegendMM 100.08     LegendNANA
22:00 1.5 -5.7 59   LegendMM LegendMM LegendMM 100.13     LegendNANA
23:00 1.2 -5.5 61   LegendMM LegendMM LegendMM 100.21     LegendNANA

Notes on Data Quality.

Legend

  • E = Estimated
  • M = Missing
  • NA = Not Available*
  • [empty] = Indicates an unobserved value
Date modified: